Weather History for Hamilton, OH

Change the Weather History Date:

Monday, May 27, 2013

  Actual Average (KCVG) Record (KCVG)
Temperature  
Mean Temperature 68 °F 67 °F  
Max Temperature 82 °F 77 °F 95 °F (1911)
Min Temperature 55 °F 57 °F 34 °F (1961)
Degree Days  
Heating Degree Days 0 2  
Month to date heating degree days 118  
Since 1 July heating degree days 4952  
Cooling Degree Days 4 4  
Month to date cooling degree days 60  
Year to date cooling degree days 78  
Growing Degree Days 18 (Base 50)    
Moisture  
Dew Point 54 °F    
Average Humidity 60    
Maximum Humidity 89    
Minimum Humidity 36    
Precipitation  
Precipitation 0.17 in 0.16 in 2.36 in (1956)
Month to date precipitation 4.29  
Year to date precipitation 17.95  
Snow  
Snow 0.00 in 0.00 in 0.00 in ()
Month to date snowfall 0.0  
Since 1 July snowfall 22.1  
Snow Depth -    
Sea Level Pressure  
Sea Level Pressure 30.09 in    
Wind  
Wind Speed 5 mph (SE)    
Max Wind Speed 12 mph    
Max Gust Speed 18 mph    
Visibility 10 miles    
Events Rain    
T = Trace of Precipitation, MM = Missing Value Source: NWS Daily Summary

Daily Weather History Graph

Daily Weather History Graph

Search for Another Location

Airport:

Trip Planner

Search our weather history database for the weather conditions in past years. The results will help you decide how hot, cold, wet, or windy it might be!

Date:

Astronomy

May. 27, 2013 Rise Set
Actual Time 6:15 AM EDT 8:55 PM EDT
Civil Twilight 5:44 AM EDT 9:26 PM EDT
Nautical Twilight 5:05 AM EDT 10:06 PM EDT
Astronomical Twilight 4:20 AM EDT 10:50 PM EDT
Moon 11:34 PM EDT (5/27) 8:51 AM EDT (5/27)
Length of Visible Light 15h 42m
Length of Day
14h 39m
Waning Gibbous, 91% of the Moon is Illuminated
May 27
Waning Gibbous
May 31
Last Quarter
Jun 8
New
Jun 16
First Quarter
Jun 23
Full

Hourly Weather History & Observations

Time (EDT) Temp. Heat Index Dew Point Humidity Pressure Visibility Wind Dir Wind Speed Gust Speed Precip Events Conditions
12:53 AM 61.0 °F - 46.9 °F 60% 30.20 in 10.0 mi East 4.6 mph - N/A   Overcast
1:53 AM 62.1 °F - 48.0 °F 60% 30.21 in 10.0 mi Calm Calm - 0.00 in Rain Light Rain
2:53 AM 60.1 °F - 48.9 °F 67% 30.19 in 10.0 mi Calm Calm - 0.00 in   Overcast
3:53 AM 57.9 °F - 51.1 °F 78% 30.20 in 10.0 mi ENE 3.5 mph - 0.00 in Rain Light Rain
4:53 AM 57.9 °F - 48.9 °F 72% 30.19 in 10.0 mi East 5.8 mph - N/A   Overcast
5:53 AM 55.0 °F - 52.0 °F 89% 30.20 in 7.0 mi NE 4.6 mph - 0.09 in Rain Rain
6:53 AM 55.0 °F - 52.0 °F 89% 30.20 in 10.0 mi East 5.8 mph - 0.08 in   Overcast
7:53 AM 55.9 °F - 52.0 °F 87% 30.20 in 10.0 mi East 5.8 mph - N/A   Overcast
8:53 AM 57.0 °F - 53.1 °F 87% 30.19 in 10.0 mi East 9.2 mph - N/A   Scattered Clouds
9:53 AM 62.1 °F - 53.1 °F 72% 30.17 in 10.0 mi East 11.5 mph - N/A   Clear
10:53 AM 66.9 °F - 54.0 °F 63% 30.16 in 10.0 mi ESE 6.9 mph - N/A   Clear
11:53 AM 70.0 °F - 53.1 °F 55% 30.14 in 10.0 mi Variable 4.6 mph - N/A   Clear
12:53 PM 73.0 °F - 55.0 °F 53% 30.11 in 10.0 mi SE 6.9 mph - N/A   Clear
1:53 PM 78.1 °F - 59.0 °F 52% 30.08 in 10.0 mi South 5.8 mph - N/A   Clear
2:53 PM 80.1 °F 80.9 °F 60.1 °F 50% 30.04 in 10.0 mi Calm Calm - N/A   Clear
3:53 PM 81.0 °F 81.1 °F 57.9 °F 45% 30.02 in 10.0 mi SSW 6.9 mph 16.1 mph N/A   Partly Cloudy
4:53 PM 80.1 °F 80.4 °F 57.0 °F 45% 30.01 in 10.0 mi South 4.6 mph - N/A   Partly Cloudy
5:53 PM 82.9 °F 82.1 °F 55.9 °F 39% 29.97 in 10.0 mi South 10.4 mph - N/A   Clear
6:53 PM 81.0 °F 80.5 °F 54.0 °F 39% 29.96 in 10.0 mi South 9.2 mph 18.4 mph N/A   Scattered Clouds
7:53 PM 80.1 °F - 51.1 °F 36% 29.96 in 10.0 mi SSW 9.2 mph - N/A   Partly Cloudy
8:53 PM 77.0 °F - 53.1 °F 43% 29.96 in 10.0 mi Variable 4.6 mph - N/A   Clear
9:53 PM 77.0 °F - 55.0 °F 47% 29.96 in 10.0 mi Variable 4.6 mph - N/A   Mostly Cloudy
10:53 PM 77.0 °F - 57.0 °F 50% 29.97 in 10.0 mi South 6.9 mph - N/A   Overcast
11:53 PM 77.0 °F - 57.0 °F 50% 29.97 in 10.0 mi SSW 10.4 mph - N/A   Overcast